Milstar 3 Cent rocket - Orbit

View from above orbital plane
View from above orbital plane
View from above satellite
View from above satellite

Ground track
Ground track

The orbit data is extracted from the following two-line orbital elements,

1 25725U 99023B   13131.10696662 0.00000140  00000-0  31325-3 0    04
2 25725  28.3191 116.5663 2387418  49.3495 310.6499  9.67156940    01
Epoch (UTC): 11 May 2013 02:34:01
Eccentricity: 0.2387418
inclination: 28.3191°
perigee height: 706 km
apogee height: 5149 km
right ascension of ascending node: 116.5663°
argument of perigee: 49.3495°
revolutions per day: 9.67156940
mean anomaly at epoch: 310.6499°
orbit number at epoch: 0

The dashed part of the orbit path shows where the satellite is in the earth's shadow,  

Developed and maintained by Chris Peat, Heavens-Above GmbH. Please read the updated FAQ before sending e-mail. Imprint. DLR